This is the latest recevied weather packets stored in our database for station/object DO1SN-13. If no packets are shown the sender has not sent any weather packets the latest 10 day(s).
| Time | Temp. | Humidity | Pressure | Rain* | Wind** | Luminosity | Snow |
|---|---|---|---|---|---|---|---|
| 1787867779 | 26.11° C | - | 1014.5 hPa | 0 mm | - | - | - |
| 1787867413 | 26.11° C | - | 1014.5 hPa | 0 mm | - | - | - |
| 1787867049 | 27.22° C | - | 1014.6 hPa | 0 mm | - | - | - |
| 1787866685 | 27.22° C | - | 1014.8 hPa | 0 mm | - | - | - |
| 1787866321 | 27.78° C | - | 1014.9 hPa | 0 mm | - | - | - |
| 1787865957 | 27.22° C | - | 1014.9 hPa | 0 mm | - | - | - |
| 1787865592 | 27.22° C | - | 1014.9 hPa | 0 mm | - | - | - |
| 1787865228 | 26.67° C | - | 1015.1 hPa | 0 mm | - | - | - |
| 1787864864 | 27.22° C | - | 1015.1 hPa | 0 mm | - | - | - |
| 1787864500 | 27.78° C | - | 1015.1 hPa | 0 mm | - | - | - |
| 1787864136 | 27.78° C | - | 1015.1 hPa | 0 mm | - | - | - |
| 1787863772 | 27.22° C | - | 1015 hPa | 0 mm | - | - | - |
| 1787863407 | 27.22° C | - | 1015 hPa | 0 mm | - | - | - |
| 1787863043 | 27.22° C | - | 1015 hPa | 0 mm | - | - | - |
| 1787862679 | 27.22° C | - | 1014.8 hPa | 0 mm | - | - | - |
| 1787862314 | 27.78° C | - | 1014.9 hPa | 0 mm | - | - | - |
| 1787861950 | 27.78° C | - | 1015 hPa | 0 mm | - | - | - |
| 1787861586 | 27.78° C | - | 1015.1 hPa | 0 mm | - | - | - |
| 1787861222 | 28.33° C | - | 1015.1 hPa | 0 mm | - | - | - |
| 1787860857 | 27.22° C | - | 1014.9 hPa | 0 mm | - | - | - |
| 1787860493 | 26.67° C | - | 1015.1 hPa | 0 mm | - | - | - |
| 1787860128 | 27.22° C | - | 1015.3 hPa | 0 mm | - | - | - |
| 1787859764 | 27.78° C | - | 1015.4 hPa | 0 mm | - | - | - |
| 1787859400 | 28.33° C | - | 1015.6 hPa | 0 mm | - | - | - |
| 1787859035 | 27.78° C | - | 1015.4 hPa | 0 mm | - | - | - |
* Rain latest hour (hover to see other rain measurements)
** Current wind speed in m/s (hover to see current wind gust speed)